Weather History for Aspen, CO

Change the Weather History Date:

Sunday, June 23, 2013

  Actual Average Record
Temperature  
Mean Temperature 58 °F 60 °F  
Max Temperature 78 °F 77 °F 88 °F (2012)
Min Temperature 38 °F 43 °F 34 °F (1989)
Degree Days  
Heating Degree Days 7 5  
Month to date heating degree days 134 199  
Since 1 June heating degree days 134 199  
Since 1 July heating degree days 8575 8844  
Cooling Degree Days 0 0  
Month to date cooling degree days 4 0  
Year to date cooling degree days 4 0  
Since 1 June cooling degree days 4 0  
Growing Degree Days 8 (Base 50)    
Moisture  
Dew Point 26 °F    
Average Humidity 32    
Maximum Humidity 54    
Minimum Humidity 10    
Precipitation  
Precipitation T in 0.04 in 0.22 in (1982)
Month to date precipitation 0.09 0.87  
Year to date precipitation 6.77 7.81  
Sea Level Pressure  
Sea Level Pressure 29.78 in    
Wind  
Wind Speed 6 mph (South)    
Max Wind Speed 17 mph    
Max Gust Speed 24 mph    
Visibility 10 miles    
Events      
T = Trace of Precipitation, MM = Missing Value Source: NWS Daily Summary

Daily Weather History Graph

Daily Weather History Graph

Search for Another Location

Airport:

Trip Planner

Search our weather history database for the weather conditions in past years. The results will help you decide how hot, cold, wet, or windy it might be!

Date:

Astronomy

Jun. 23, 2013 Rise Set
Actual Time 5:41 AM MDT 8:37 PM MDT
Civil Twilight 5:09 AM MDT 9:09 PM MDT
Nautical Twilight 4:28 AM MDT 9:50 PM MDT
Astronomical Twilight 3:41 AM MDT 10:37 PM MDT
Moon 8:53 PM MDT 6:02 AM MDT
Length of Visible Light 16h 00m
Length of Day
14h 55m
Full, 100% of the Moon is Illuminated
Jun 23
Full
Jun 29
Last Quarter
Jul 8
New
Jul 15
First Quarter
Jul 22
Full

Hourly Weather History & Observations

Time (MDT) Temp. Windchill Dew Point Humidity Pressure Visibility Wind Dir Wind Speed Gust Speed Precip Events Conditions
12:53 AM 46.9 °F - 24.1 °F 41% 29.81 in 10.0 mi SSW 6.9 mph - N/A   Clear
1:53 AM 45.0 °F 41.2 °F 24.1 °F 44% 29.82 in 10.0 mi SSW 6.9 mph - N/A   Clear
2:53 AM 43.0 °F 37.7 °F 24.1 °F 47% 29.84 in 10.0 mi SSW 9.2 mph - N/A   Clear
3:53 AM 43.0 °F 40.3 °F 24.1 °F 47% 29.83 in 10.0 mi SSW 4.6 mph - N/A   Clear
4:53 AM 39.0 °F 35.7 °F 25.0 °F 57% 29.85 in 10.0 mi SSW 4.6 mph - N/A   Clear
5:53 AM 39.0 °F 34.0 °F 25.0 °F 57% 29.85 in 10.0 mi South 6.9 mph - N/A   Clear
6:53 AM 44.1 °F - 27.0 °F 51% 29.83 in 10.0 mi Calm Calm - N/A   Clear
7:53 AM 51.1 °F - 25.0 °F 36% 29.82 in 10.0 mi Calm Calm - N/A   Clear
8:53 AM 55.9 °F - 27.0 °F 33% 29.84 in 10.0 mi NNW 3.5 mph - N/A   Clear
9:53 AM 63.0 °F - 28.0 °F 27% 29.81 in 10.0 mi NE 5.8 mph - N/A   Clear
10:53 AM 66.0 °F - 26.1 °F 22% 29.81 in 10.0 mi Variable 4.6 mph - N/A   Clear
11:53 AM 72.0 °F - 24.1 °F 17% 29.76 in 10.0 mi Variable 6.9 mph - N/A   Partly Cloudy
12:53 PM 73.9 °F - 21.9 °F 14% 29.74 in 10.0 mi Variable 5.8 mph - N/A   Partly Cloudy
1:53 PM 75.9 °F - 16.0 °F 10% 29.72 in 10.0 mi Variable 6.9 mph - N/A   Scattered Clouds
2:53 PM 77.0 °F - 19.0 °F 11% 29.70 in 10.0 mi Variable 5.8 mph - N/A   Scattered Clouds
3:53 PM 75.9 °F - 23.0 °F 14% 29.69 in 10.0 mi North 10.4 mph - N/A   Scattered Clouds
4:53 PM 73.0 °F - 27.0 °F 18% 29.71 in 10.0 mi East 5.8 mph - N/A   Mostly Cloudy
5:53 PM 70.0 °F - 37.0 °F 30% 29.73 in 10.0 mi SE 3.5 mph - 0.00 in   Mostly Cloudy
6:53 PM 72.0 °F - 24.1 °F 17% 29.72 in 10.0 mi South 11.5 mph - N/A   Partly Cloudy
7:15 PM 68.0 °F - 28.4 °F 23% 30.05 in 8.0 mi ESE 11.5 mph - N/A   Clear
7:53 PM 66.9 °F - 28.9 °F 24% 29.71 in 10.0 mi SE 10.4 mph - N/A   Clear
8:53 PM 57.9 °F - 35.1 °F 42% 29.73 in 10.0 mi South 5.8 mph - N/A   Clear
9:53 PM 55.0 °F - 32.0 °F 42% 29.74 in 10.0 mi SSW 8.1 mph - N/A   Clear
10:53 PM 54.0 °F - 28.9 °F 38% 29.74 in 10.0 mi SSW 9.2 mph - N/A   Clear
11:53 PM 48.9 °F - 28.9 °F 46% 29.72 in 10.0 mi SW 11.5 mph - N/A   Clear